Regional Weather Roundup
Issued by NWS

Home | Current Version | Previous Version | Text Only | Print | Product List | Glossary Off
Versions: 1 2 3 4 5 6 7 8 9 10 11 12 13 14 15 16 17 18 19 20 21 22 23 24 25 26 27

000
ASUS45 KSLC 260810
RWRUT

UTAH REGIONAL WEATHER ROUNDUP
NATIONAL WEATHER SERVICE SALT LAKE CITY UT
200 AM MDT FRI MAY 26 2017

UTZ001>011-023>025-260900-

NORTHERN UTAH

CITY           SKY/WX    TMP DP  RH WIND       PRES   REMARKS
BRIGHAM CITY   PTCLDY    50  33  53 NW8       29.74F
HILL AFB       PTCLDY    53  28  37 E15       29.73F
LOGAN          MOCLDY    47  40  76 NW5       29.78S
OGDEN          CLEAR     52  30  43 CALM      29.71F
SALT LAKE CITY CLEAR     53  39  59 CALM      29.71F
TOOELE VALLEY  CLEAR     41  36  81 SE5       29.73S
WENDOVER       CLEAR     58  25  28 N16G22    29.73S
HEBER CITY     CLEAR     39  34  81 CALM      29.81S
WEST JORDAN    CLEAR     49  39  69 SW6       29.74F

$$

UTZ011>015-024>027-260900-

CENTRAL/NORTHEAST UTAH

CITY           SKY/WX    TMP DP  RH WIND       PRES   REMARKS
PROVO AIRPORT  PTCLDY    53  41  63 S6        29.74F
MOAB/CANYONLAN CLOUDY    60  43  53 E9        29.76F
DELTA          PTCLDY    54  34  47 CALM      29.70S
PRICE          PTCLDY    50  32  50 NE7       29.82S
ROOSEVELT      CLEAR     45  34  65 W7        29.86R
VERNAL         PTCLDY    47  28  47 NW3       29.85R

$$

UTZ013>016-019>022-027-260900-

SOUTHERN UTAH

CITY           SKY/WX    TMP DP  RH WIND       PRES   REMARKS
BRYCE CANYON   PTCLDY    53  18  25 SW15      29.93F
CEDAR CITY     PTCLDY    66  15  14 S16G36    29.78S
MILFORD        MOCLDY    61  29  29 S12       29.72S
ST GEORGE      SUNNY     79  21  11 SW17      29.65R
HANKSVILLE     CLOUDY    64  36  34 SE6       29.78S
BLANDING       MOCLDY    55  34  45 NE6       29.95R

$$

REGIONAL REPORTS     COLORADO/ARIZONA

CITY           SKY/WX    TMP DP  RH WIND       PRES   REMARKS
CRAIG, CO      CLEAR     43  38  82 E8        29.93S
GRAND JUNCTION CLOUDY    61  41  47 SE15      29.85S
RIFLE, CO      CLOUDY    54  43  66 S18G24    29.92S
MONTROSE, CO   CLOUDY    56  40  55 E9        29.97R
CORTEZ, CO     CLEAR     53  35  50 NE6       29.91F
COLORADO CITY    N/A     54  21  28 E3        29.83S
PAGE, AZ       CLEAR     72  12  10 S12       29.75S
GRAND CANYON   CLEAR     55  18  23 SW14G23   29.97R
KINGMAN, AZ    CLEAR     71  26  18 S10       29.78R
FLAGSTAFF, AZ  CLEAR     54  22  28 SW22G30   29.99S

$$

REGIONAL REPORTS    NEVADA/IDAHO/WYOMING

CITY           SKY/WX    TMP DP  RH WIND       PRES   REMARKS
LAS VEGAS, NV  PTCLDY    78  20  11 S10       29.60R
ELY, NY        MOCLDY    43  21  41 S5        29.80S
ELKO, NV       CLOUDY    54  30  40 N14       29.78R
POCATELLO, ID  MOCLDY    49  32  52 N7        29.80R
BURLEY, ID     CLOUDY    52  38  58 VRB3      29.79S
FORT BRIDGER,  CLOUDY    45  25  45 S7        29.92F
EVANSTON, WY   CLOUDY    44  26  49 E9        29.87F
ROCK SPRINGS,  CLOUDY    40  30  67 E9        29.94R WCI  34
KEMMERER, WY     N/A     41  30  65 S5        29.90F

$$




USA.gov is the U.S. government's official web portal to all federal, state and local government web resources and services.